This is the latest recevied weather packets stored in our database for station/object M0HPP-13. If no packets are shown the sender has not sent any weather packets the latest 10 day(s).
| Time | Temp. | Humidity | Pressure | Rain* | Wind** | Luminosity | Snow |
|---|---|---|---|---|---|---|---|
| 1777560019 | 16.11° C | 39% | 1021.7 hPa | 0 mm | - | 503 W/m² | - |
| 1777559419 | 16.11° C | 35% | 1021.8 hPa | 0 mm | - | 424 W/m² | - |
| 1777558819 | 16.11° C | 34% | 1022 hPa | 0 mm | - | 357 W/m² | - |
| 1777558219 | 15.56° C | 36% | 1022.1 hPa | 0 mm | - | 527 W/m² | - |
| 1777557619 | 15° C | 36% | 1022.5 hPa | 0 mm | - | 550 W/m² | - |
| 1777557019 | 15.56° C | 36% | 1022.5 hPa | 0 mm | - | 556 W/m² | - |
| 1777556419 | 15.56° C | 39% | 1022.6 hPa | 0 mm | - | 562 W/m² | - |
| 1777555819 | 15° C | 40% | 1022.7 hPa | 0 mm | - | 567 W/m² | - |
| 1777555219 | 15° C | 41% | 1022.8 hPa | 0 mm | - | 571 W/m² | - |
| 1777554619 | 15° C | 41% | 1023 hPa | 0 mm | - | 574 W/m² | - |
| 1777554019 | 14.44° C | 42% | 1023.1 hPa | 0 mm | - | 577 W/m² | - |
| 1777553419 | 14.44° C | 42% | 1023.3 hPa | 0 mm | - | 578 W/m² | - |
| 1777552819 | 13.33° C | 44% | 1023.5 hPa | 0 mm | - | 579 W/m² | - |
| 1777552219 | 13.33° C | 49% | 1023.7 hPa | 0 mm | - | 572 W/m² | - |
| 1777551619 | 13.33° C | 50% | 1023.7 hPa | 0 mm | - | 439 W/m² | - |
| 1777551019 | 13.33° C | 50% | 1023.8 hPa | 0 mm | - | 398 W/m² | - |
| 1777550419 | 12.78° C | 51% | 1023.9 hPa | 0 mm | - | 562 W/m² | - |
| 1777549819 | 12.78° C | 52% | 1024.1 hPa | 0 mm | - | 565 W/m² | - |
| 1777549219 | 12.78° C | 52% | 1024.2 hPa | 0 mm | - | 562 W/m² | - |
| 1777548619 | 12.78° C | 52% | 1024.4 hPa | 0 mm | - | 556 W/m² | - |
| 1777548019 | 12.78° C | 52% | 1024.4 hPa | 0 mm | - | 549 W/m² | - |
| 1777547419 | 12.78° C | 52% | 1024.4 hPa | 0 mm | - | 541 W/m² | - |
| 1777546819 | 12.78° C | 55% | 1024.5 hPa | 0 mm | - | 533 W/m² | - |
| 1777546219 | 12.78° C | 57% | 1024.7 hPa | 0 mm | - | 515 W/m² | - |
| 1777545619 | 12.78° C | 55% | 1024.7 hPa | 0 mm | - | 506 W/m² | - |
* Rain latest hour (hover to see other rain measurements)
** Current wind speed in m/s (hover to see current wind gust speed)